GFSFLT2_850_spd_000.txt.gz
Wind_Speed
40 36 39 33 31 29 31 32 33 31 29 30 31 33 33 32 29 19 17 16 15 15 16 17 19 21 20
39 38 35 30 31 30 31 31 28 30 27 30 33 31 27 24 21 20 18 16 15 16 16 18 20 22 22
34 37 34 32 26 28 29 28 27 28 29 29 29 24 22 20 19 19 18 17 16 15 16 18 20 20 21
36 35 32 30 28 27 27 26 24 27 28 26 25 19 18 16 18 18 17 16 14 14 16 19 20 20 20
36 34 33 31 27 27 23 23 24 25 24 21 20 17 16 17 18 18 17 16 13 16 18 20 19 21 21
36 36 34 29 25 24 21 21 17 23 19 19 18 14 15 17 20 19 16 14 17 17 19 20 22 22 22
35 34 32 27 25 21 21 20 19 19 17 17 14 15 14 16 18 13 12 20 19 19 20 22 22 22 22
34 30 27 24 21 19 18 18 17 16 12 13 10 14 14 15 9 11 16 18 18 22 21 21 19 19 20
30 29 26 23 19 17 16 14 13 10 13 11 11 16 16 8 9 15 16 12 19 20 21 17 18 20 21
34 30 24 22 20 16 13 12 11 7 13 8 8 12 9 6 10 15 15 18 20 19 15 18 17 20 19
30 26 23 20 16 13 11 10 10 9 13 12 9 10 9 14 16 16 14 18 19 21 15 20 18 18 20
31 25 23 17 14 11 9 9 8 10 13 13 12 11 14 18 15 14 19 20 17 16 20 20 21 19 19
28 25 20 14 13 10 8 8 9 10 11 11 12 14 15 20 24 25 22 20 18 19 19 19 21 20 20
26 21 19 14 12 8 9 8 9 9 9 10 12 16 19 20 22 25 19 15 23 20 20 23 21 19 18
27 23 19 14 10 10 9 9 8 7 7 10 13 15 17 19 21 15 15 20 18 20 22 25 23 19 18
26 22 16 13 10 11 10 9 7 6 7 9 12 14 15 13 11 12 18 20 20 22 23 23 29 21 19
26 21 16 11 12 11 10 8 6 5 7 10 12 15 16 14 15 16 23 22 24 26 23 25 30 29 23

GFSFLT2_850_spd_003.txt.gz
Wind_Speed
37 35 40 37 37 37 35 30 31 36 37 34 34 34 33 36 35 34 30 24 18 15 15 16 17 18 21
44 39 39 41 40 37 34 32 33 37 37 34 33 33 32 32 32 27 23 20 19 16 15 15 16 18 20
44 34 38 38 38 35 33 35 36 35 34 33 30 30 28 29 26 23 21 20 19 18 15 14 17 19 20
41 37 42 41 33 35 33 33 32 30 31 27 28 28 25 26 21 21 20 20 19 17 13 17 17 20 19
36 39 40 42 40 35 32 29 28 28 26 26 25 26 23 22 21 20 19 17 19 15 17 17 19 19 21
39 41 35 41 42 33 29 26 27 27 26 22 23 24 20 18 20 21 21 19 16 16 19 18 19 20 22
44 44 34 37 41 32 30 27 24 25 21 23 21 21 18 17 20 21 16 14 18 18 20 20 20 21 21
43 39 38 34 33 29 24 22 22 20 19 18 16 17 17 20 19 17 14 17 19 18 20 21 21 20 21
46 42 35 29 28 27 26 22 20 15 15 16 14 16 19 17 12 14 15 18 15 18 19 20 20 19 21
48 41 34 29 27 25 19 18 16 9 15 13 12 13 7 8 8 12 17 16 17 19 18 19 15 20 20
43 38 33 30 24 20 17 16 13 11 13 13 11 11 11 15 14 13 10 15 19 19 19 16 17 17 23
37 33 31 24 24 17 11 13 11 11 14 13 11 11 13 18 17 12 17 19 15 16 17 19 18 19 19
34 33 27 23 20 16 14 14 11 11 12 11 11 11 12 17 22 21 22 22 16 15 17 22 21 22 24
36 30 26 23 18 14 13 12 13 9 9 9 10 12 15 17 21 22 19 19 19 21 22 23 24 22 21
34 30 27 22 18 16 13 14 10 7 6 7 9 11 15 17 21 20 18 19 22 23 24 27 25 22 18
33 30 27 22 18 17 14 12 8 6 7 8 9 13 13 13 14 15 16 20 21 24 24 27 28 22 21
33 32 25 20 19 15 13 10 7 6 6 6 8 10 12 17 20 14 21 23 26 27 26 25 29 28 26

GFSFLT2_850_spd_006.txt.gz
Wind_Speed
42 40 39 42 42 35 38 40 37 34 33 34 32 29 28 28 29 30 32 32 31 27 22 16 15 16 15
44 39 42 42 43 39 39 43 40 36 34 34 33 30 28 28 30 31 31 30 27 23 21 17 15 14 17
49 43 39 42 45 45 40 42 40 37 36 36 33 32 29 27 29 28 28 27 22 19 19 18 14 16 17
47 44 44 39 43 44 38 45 41 41 35 35 32 31 27 27 27 26 25 23 20 19 19 16 14 17 18
45 42 44 42 40 48 40 43 40 39 37 35 33 27 25 24 25 24 22 20 17 17 18 15 19 19 21
44 42 47 45 37 51 39 44 34 40 38 35 30 26 22 22 21 21 21 19 19 18 16 16 20 20 21
46 44 48 49 37 45 40 41 37 39 30 31 23 21 20 19 18 16 19 18 17 15 17 18 20 21 21
44 53 49 47 46 41 37 39 36 34 25 19 19 20 18 17 15 15 19 18 16 17 19 19 20 21 21
40 39 44 49 47 38 35 35 35 30 24 18 17 17 16 16 17 17 17 15 17 19 17 19 19 20 22
39 35 45 41 35 44 39 42 33 19 19 18 17 12 6 11 9 9 11 14 17 16 16 18 18 20 19
42 35 45 42 36 33 24 28 25 22 14 17 13 12 11 9 9 9 13 12 14 17 18 19 17 17 19
42 41 39 33 28 27 22 22 19 15 14 13 11 11 13 12 10 7 10 14 16 15 14 14 16 16 17
40 38 33 28 24 22 22 21 18 14 11 11 11 11 10 12 14 12 13 13 15 9 12 15 16 17 19
34 30 30 31 27 23 24 19 15 13 12 11 10 8 10 10 14 15 13 12 12 14 16 17 17 19 20
25 28 31 30 27 26 21 20 14 12 10 10 7 8 9 11 16 14 13 14 13 15 18 21 21 20 19
19 24 29 29 28 25 18 14 12 10 10 7 6 6 10 9 9 12 11 13 16 18 19 24 26 20 17
17 23 29 26 24 21 18 14 12 11 7 4 4 7 10 15 11 7 16 18 20 22 21 23 26 22 19

GFSFLT2_850_spd_009.txt.gz
Wind_Speed
51 50 42 46 45 41 44 46 48 39 40 45 46 47 45 43 42 36 34 30 29 28 26 26 20 17 18
51 48 49 49 49 46 43 44 47 44 41 44 49 48 45 45 39 35 31 28 28 26 26 24 23 19 17
53 50 50 50 49 48 46 44 47 47 52 37 46 50 44 42 37 33 27 26 27 25 24 23 23 21 15
47 49 50 49 49 48 48 51 41 46 48 43 41 48 48 40 33 26 25 25 26 24 23 23 21 18 16
41 43 43 33 41 44 51 51 47 48 45 53 47 49 43 37 29 28 25 24 25 25 23 21 19 16 17
40 40 45 49 33 42 51 45 44 49 48 52 44 45 41 34 26 24 25 25 25 23 21 20 18 17 20
41 42 44 44 43 45 43 50 46 43 39 48 43 42 38 27 20 24 27 24 23 21 18 17 16 18 19
38 42 43 42 39 43 43 45 45 39 35 35 39 39 30 25 22 27 24 22 22 19 17 17 17 19 19
40 41 41 40 36 36 36 40 38 37 36 32 30 29 26 22 24 23 22 22 19 19 19 18 18 18 19
42 43 43 42 33 41 41 42 40 32 35 34 26 22 13 21 24 23 21 18 18 18 18 17 17 18 20
41 40 45 40 41 44 36 42 42 32 29 36 23 21 14 9 17 18 17 17 18 18 18 18 20 19 20
38 39 38 37 34 32 28 30 27 24 19 27 17 18 20 17 11 17 17 16 16 16 18 18 18 17 17
35 34 33 29 25 22 19 20 21 16 16 16 12 14 15 14 10 11 12 13 14 16 17 15 15 17 19
26 24 22 19 20 21 22 20 18 16 14 13 12 10 11 11 11 9 10 8 7 10 14 17 18 17 19
22 19 17 20 23 21 18 17 16 16 13 12 9 9 9 9 8 6 6 9 10 12 16 17 17 18 19
20 16 18 22 22 18 16 15 11 11 10 10 8 6 5 4 4 4 8 8 9 13 16 21 22 16 18
18 15 18 20 20 21 19 14 12 11 9 7 5 3 2 4 6 6 8 10 14 17 17 21 25 19 16

GFSFLT2_850_spd_012.txt.gz
Wind_Speed
38 41 44 47 49 51 51 51 51 49 43 42 43 46 48 51 50 51 52 51 47 42 36 34 33 30 22
45 41 40 45 48 51 53 52 54 49 43 48 45 46 49 54 51 52 53 55 47 41 36 33 32 25 22
47 46 43 41 44 46 48 60 50 54 45 44 47 47 54 52 52 54 54 50 47 39 34 30 29 24 22
37 40 43 40 36 39 42 45 46 44 52 50 49 53 51 57 53 57 49 49 45 37 29 29 27 24 23
41 41 39 38 38 39 43 46 44 47 42 47 56 52 55 51 44 48 48 46 38 35 26 27 24 24 22
41 41 45 41 40 42 42 38 34 41 46 56 56 50 48 48 48 50 47 41 35 27 25 24 24 22 21
41 43 42 41 40 41 42 41 43 44 37 40 49 43 48 51 49 46 36 32 26 26 27 25 24 23 21
41 47 47 47 41 45 47 44 45 46 45 41 41 35 39 42 47 38 33 29 28 24 25 25 22 22 21
45 46 46 44 41 41 44 40 38 45 42 39 37 37 36 37 37 35 32 28 21 24 25 23 22 21 21
49 48 48 46 41 39 42 40 36 35 38 39 29 30 17 28 35 35 27 22 23 24 22 23 23 22 22
47 45 41 38 38 39 38 36 37 43 36 31 30 30 15 18 32 29 26 23 28 25 24 23 21 21 22
40 37 35 35 33 30 26 25 25 33 22 17 27 34 22 19 22 25 25 27 27 26 23 22 22 23 23
38 36 32 30 26 23 20 18 17 15 15 23 19 29 19 16 19 28 28 26 24 23 22 23 23 24 24
34 31 30 25 18 16 13 10 14 20 22 16 19 16 14 14 14 19 22 14 23 22 21 22 23 23 22
33 29 24 19 15 10 11 16 19 20 17 15 14 13 13 11 12 13 16 18 14 17 20 20 21 21 22
29 25 22 19 12 11 11 8 14 15 14 13 12 11 10 8 8 11 14 13 15 16 17 18 18 18 20
26 22 20 14 9 11 9 9 14 14 12 11 11 8 7 5 3 7 9 9 10 12 14 18 21 17 16

GFSFLT2_850_spd_015.txt.gz
Wind_Speed
42 41 37 37 42 42 43 44 46 48 51 48 49 49 47 44 44 46 48 52 53 49 49 54 50 45 37
46 41 36 36 38 38 37 40 43 44 45 46 50 49 52 49 49 47 47 52 53 54 53 57 52 48 39
41 43 47 43 38 39 39 39 41 40 39 42 44 47 50 53 49 48 46 50 55 56 57 55 53 42 31
39 45 44 44 37 38 40 39 42 41 42 42 42 45 37 38 45 54 49 47 51 57 60 58 48 38 33
35 38 40 39 36 40 42 45 45 41 42 44 42 44 47 42 36 42 47 54 48 62 60 54 46 41 32
38 38 42 37 41 40 41 39 45 35 35 42 39 40 41 47 46 45 42 53 59 58 57 45 37 33 27
40 41 45 43 44 45 43 42 43 42 36 36 34 40 46 45 45 41 41 57 55 52 45 39 37 31 27
40 44 45 47 45 49 50 50 51 50 42 47 44 46 45 45 43 38 45 50 46 40 35 35 30 27 24
39 44 48 43 42 43 48 44 45 42 39 40 37 41 43 41 34 37 43 42 38 34 33 32 26 24 28
51 51 41 44 36 33 39 44 42 40 35 36 39 39 23 30 30 31 32 34 31 33 28 25 25 28 29
43 45 42 39 36 33 32 37 43 45 41 34 36 36 28 12 34 37 36 31 28 27 25 25 26 29 30
42 43 42 42 38 36 33 28 29 32 30 37 34 35 36 19 20 34 30 30 30 28 26 24 23 25 26
40 43 41 38 35 30 26 22 23 24 21 28 29 26 28 25 28 39 33 31 29 29 31 30 31 30 25
41 44 39 32 30 25 21 16 11 4 7 14 15 18 15 14 22 35 30 20 33 31 27 28 30 27 26
40 40 34 29 25 20 14 10 8 7 11 15 18 18 15 14 19 27 26 16 26 28 28 27 26 24 24
41 37 32 24 19 14 9 7 5 7 11 14 15 15 16 14 14 21 21 16 16 23 22 22 20 19 19
39 33 26 18 11 8 3 3 8 10 10 10 9 11 13 12 13 15 13 15 16 17 17 17 16 16 17

GFSFLT2_850_spd_018.txt.gz
Wind_Speed
43 35 47 47 41 37 37 41 43 42 40 41 42 44 42 39 40 40 43 48 51 50 54 52 50 50 50
45 52 52 46 46 48 44 39 44 43 42 46 40 39 38 36 37 39 40 41 41 42 50 52 53 51 49
50 49 47 45 43 45 43 40 37 36 35 36 37 38 36 38 38 38 40 45 41 42 47 47 52 56 50
37 41 39 39 37 39 42 39 43 39 37 36 45 45 42 40 42 41 37 34 37 38 42 50 55 57 56
39 40 40 38 35 34 38 42 43 37 38 37 38 40 39 35 37 35 28 35 38 33 39 40 47 59 61
41 42 45 40 39 39 40 41 46 35 31 40 39 39 34 36 35 31 30 35 37 39 36 34 44 54 62
44 44 45 45 45 47 42 40 47 45 41 51 41 44 41 42 44 45 42 38 32 35 33 42 51 59 59
41 42 42 46 43 40 50 52 47 46 41 47 39 43 37 35 37 35 34 36 32 27 39 48 47 54 50
37 39 39 41 41 39 42 40 41 40 40 41 42 38 38 38 36 36 36 34 26 33 42 45 47 39 35
46 42 38 36 33 34 35 38 36 38 30 32 35 34 25 24 29 28 20 25 34 42 42 37 33 34 34
41 40 41 37 39 39 34 35 37 38 36 30 34 37 35 31 17 15 29 31 34 34 33 35 35 34 35
43 41 41 38 42 41 34 30 28 30 30 28 32 29 31 24 15 26 34 36 38 36 34 29 28 28 29
42 41 43 37 43 37 31 26 24 26 26 26 24 27 26 28 22 31 32 30 31 31 32 32 29 25 28
43 42 40 37 42 32 28 22 19 14 13 10 9 12 14 18 20 30 30 21 31 32 33 30 27 25 25
45 42 41 38 36 27 20 15 13 8 4 7 10 9 8 12 21 31 33 24 31 32 32 30 27 27 23
43 43 37 35 28 21 14 9 2 2 6 10 12 18 17 16 17 28 26 18 33 30 28 27 27 27 25
43 41 35 25 20 15 9 2 5 8 9 7 5 6 13 14 16 15 14 14 27 24 24 24 24 23 21

GFSFLT2_850_spd_021.txt.gz
Wind_Speed
41 46 35 39 50 53 42 45 44 43 41 39 37 42 41 40 39 37 37 37 39 37 36 46 47 50 50
45 38 43 44 41 44 39 37 42 40 35 35 37 36 39 40 40 36 34 33 34 34 37 40 41 50 52
45 45 44 41 41 41 41 40 42 37 34 35 38 37 42 40 37 35 35 33 33 33 35 37 38 41 40
38 41 42 42 39 41 45 41 42 38 38 36 34 35 33 37 41 40 37 35 32 33 36 37 35 37 42
41 41 40 40 42 43 42 43 45 42 40 39 36 36 32 32 32 28 31 30 30 29 23 32 36 37 39
45 43 44 45 44 43 43 41 43 43 40 34 40 43 44 42 36 38 36 29 25 26 27 28 35 34 35
43 41 42 47 44 45 41 45 44 41 43 45 44 43 42 42 37 30 30 33 34 36 32 29 29 38 40
40 43 43 45 45 46 44 45 49 47 38 38 41 41 38 37 33 28 27 28 31 31 29 29 33 32 38
39 39 37 41 39 38 41 38 40 42 32 32 35 37 37 38 34 29 29 30 30 30 28 28 28 24 30
47 45 36 35 32 32 35 39 39 41 22 24 34 33 22 20 27 23 20 23 23 24 18 22 31 36 46
41 39 38 39 38 36 31 36 40 40 35 29 29 25 23 24 27 31 31 22 12 19 25 34 36 45 48
39 40 40 42 39 35 32 33 34 32 30 28 30 27 24 24 26 19 15 24 26 36 37 38 42 42 37
40 41 43 42 38 36 33 36 28 24 21 24 26 26 23 23 22 16 22 32 37 39 34 32 32 28 33
42 44 43 40 37 35 33 26 21 17 15 16 16 13 15 19 21 19 26 19 35 38 34 27 26 30 36
42 43 42 40 38 32 25 19 14 11 7 6 8 6 4 10 14 21 25 30 33 32 31 31 28 27 31
42 42 41 38 32 22 16 12 7 6 7 6 8 13 17 18 16 22 24 31 30 31 33 32 32 25 21
43 39 36 31 21 16 12 9 9 9 10 9 8 9 16 16 18 20 26 29 29 29 27 29 32 29 23

GFSFLT2_850_spd_024.txt.gz
Wind_Speed
43 46 46 41 41 42 43 41 43 37 38 39 40 40 38 39 41 40 40 40 40 37 36 39 41 40 45
45 45 46 46 43 41 44 42 42 41 39 40 40 38 38 39 40 39 43 40 38 37 36 37 36 37 37
46 43 45 44 44 43 42 42 42 44 40 38 37 37 39 39 38 39 39 40 40 37 34 32 33 36 37
42 42 42 45 43 44 44 43 43 41 40 39 36 37 36 35 34 35 33 32 34 37 35 37 33 35 36
44 39 42 46 44 44 41 45 46 42 43 41 38 37 38 33 35 41 38 37 31 28 28 33 34 35 35
41 39 51 44 43 44 45 44 45 47 38 44 41 39 44 43 41 38 39 36 31 35 31 28 29 29 29
44 44 45 45 45 48 47 45 43 53 45 48 49 40 42 43 41 40 38 32 27 27 35 35 31 33 30
40 43 44 48 46 46 47 51 51 46 34 40 37 41 42 40 38 34 33 29 27 25 25 31 36 34 32
38 41 41 41 39 39 41 38 43 38 33 34 39 37 31 37 39 39 25 24 25 25 27 30 33 31 32
47 43 36 35 32 32 35 38 40 41 30 29 37 34 34 28 18 15 15 22 25 22 23 24 26 28 26
41 41 41 39 38 37 38 38 41 41 39 31 34 33 28 35 35 32 31 24 27 29 23 22 22 24 25
41 41 41 42 41 40 36 33 32 35 33 29 33 28 28 30 30 26 24 18 13 10 14 20 27 33 31
40 42 43 42 42 39 35 32 31 29 25 22 23 26 27 28 27 19 20 5 23 21 30 31 32 36 43
40 43 42 42 41 36 35 33 28 21 16 15 14 13 19 17 17 17 14 5 25 31 30 33 34 38 42
42 41 41 40 38 32 29 21 16 15 13 11 7 9 6 7 7 10 12 20 28 31 31 28 24 23 27
40 39 37 36 33 25 19 16 16 17 16 12 11 1 3 11 10 14 22 28 30 28 28 30 28 27 30
39 33 33 31 26 24 21 18 15 14 15 15 10 10 12 11 16 19 26 28 30 31 30 32 33 27 27

GFSFLT2_850_spd_027.txt.gz
Wind_Speed
48 47 48 46 46 40 42 40 42 42 41 42 43 42 45 46 45 42 39 38 37 34 33 31 33 36 37
47 49 48 51 45 43 40 40 42 46 46 44 43 47 43 43 42 41 40 38 36 34 32 34 35 31 33
48 47 47 45 46 44 40 44 48 43 40 40 41 41 39 41 40 41 41 38 35 33 31 32 34 34 33
43 44 44 46 38 41 50 45 46 42 44 44 40 38 38 39 39 41 37 37 31 29 29 29 29 33 34
45 45 37 43 43 46 45 50 51 42 44 43 40 37 43 44 42 36 37 32 32 30 28 29 29 30 30
43 41 41 45 46 43 45 47 53 41 41 52 45 47 44 41 38 35 34 37 39 38 37 34 34 32 32
42 43 46 46 47 49 47 46 50 53 45 53 40 44 36 39 33 35 36 33 33 33 33 31 32 35 31
40 43 45 48 47 46 48 53 50 44 36 43 40 41 47 40 36 36 34 34 32 32 30 31 31 34 37
40 41 40 40 39 42 44 42 46 40 33 42 41 41 44 43 43 32 24 20 26 25 27 28 27 27 33
45 43 40 40 35 35 40 41 43 44 36 37 41 38 39 33 15 18 33 35 28 20 22 27 27 28 33
42 42 41 39 39 40 40 40 42 44 44 36 39 38 34 36 32 31 35 28 26 22 20 26 27 27 28
41 41 42 43 43 40 38 36 35 38 36 31 38 36 38 31 32 31 30 21 22 13 16 21 23 24 22
40 42 43 42 41 40 37 33 32 30 26 22 23 22 25 26 29 29 20 18 7 10 16 19 22 25 27
40 42 42 41 40 37 36 30 25 23 21 14 14 14 15 21 17 17 12 10 4 19 28 33 34 34 34
42 42 41 40 39 38 29 29 26 28 28 24 18 6 10 15 8 4 4 5 15 22 27 32 32 35 39
40 40 38 36 35 32 28 25 25 27 27 27 17 10 5 7 10 8 12 18 19 25 28 32 31 29 32
39 35 32 34 32 30 28 26 26 25 24 24 18 13 13 11 15 14 23 25 27 31 32 34 37 37 37

GFSFLT2_850_spd_030.txt.gz
Wind_Speed
53 48 49 51 52 44 40 39 41 40 39 39 44 47 43 43 42 44 45 43 41 40 40 39 37 37 36
51 50 49 51 52 51 45 37 38 36 42 44 44 42 41 40 43 45 45 41 40 38 39 39 39 38 37
48 50 48 49 52 50 43 40 41 37 44 42 39 40 41 39 39 39 40 40 40 38 37 37 37 36 34
45 43 46 49 42 45 47 44 48 42 44 42 37 38 38 37 37 38 39 42 39 38 37 34 34 33 33
44 50 36 48 46 47 45 50 50 41 43 43 38 43 47 42 40 37 35 32 33 35 35 34 32 33 35
42 46 50 47 44 46 46 48 53 37 38 53 43 48 44 39 35 35 32 36 34 30 31 35 32 35 33
45 44 47 47 47 52 47 42 45 47 45 52 40 43 40 38 40 36 37 37 34 32 33 33 32 35 38
41 42 45 47 46 46 48 50 47 42 36 47 40 40 45 44 39 36 37 34 33 33 34 34 35 34 34
39 39 41 41 39 42 44 44 45 40 40 42 43 45 43 44 38 29 29 25 25 29 25 26 32 31 35
44 45 40 41 36 36 40 42 43 42 43 37 43 41 38 34 17 25 33 31 29 29 27 25 27 25 32
41 42 41 41 41 37 36 40 42 44 41 37 39 40 33 33 33 35 30 36 30 24 21 25 28 28 28
40 40 42 43 38 36 34 36 31 33 29 32 32 30 28 28 31 34 30 22 14 18 20 20 27 31 31
40 42 42 40 38 37 35 34 31 31 32 28 24 22 20 22 28 29 24 20 13 14 15 19 28 31 33
40 41 40 38 36 33 37 36 34 31 29 29 27 16 11 15 22 20 16 15 15 4 14 19 19 22 28
39 39 39 38 37 36 38 38 33 34 36 34 22 10 2 18 20 13 10 7 9 18 25 27 24 22 23
39 40 39 39 41 40 37 34 32 33 29 30 21 15 8 5 19 11 12 14 18 26 32 39 38 34 36
39 38 39 40 38 35 32 30 32 29 24 22 23 22 20 18 22 13 19 22 26 32 34 39 43 39 41

GFSFLT2_850_spd_033.txt.gz
Wind_Speed
50 49 48 52 49 44 39 38 41 38 37 36 38 42 43 45 45 44 43 43 42 42 41 43 43 42 42
54 52 53 51 49 52 40 36 41 44 41 42 47 48 46 42 41 41 42 42 42 42 42 44 43 40 42
47 54 50 43 50 43 44 43 44 40 40 42 39 40 41 40 39 39 40 40 41 41 41 40 40 41 40
46 40 49 43 40 51 51 41 42 44 45 42 39 38 38 38 40 42 42 42 42 41 41 40 40 40 40
46 47 36 48 45 45 46 48 45 44 46 40 37 40 46 45 42 39 38 36 35 35 37 37 37 38 37
39 45 49 44 46 46 48 44 41 38 41 50 42 47 44 42 39 36 36 37 38 39 37 35 36 35 36
44 43 44 49 50 46 42 46 46 49 45 50 41 43 42 41 37 36 37 40 39 39 37 37 38 34 35
37 42 44 44 46 47 46 48 46 46 40 44 45 45 45 44 39 36 37 37 38 37 37 36 34 36 37
36 37 41 38 36 38 42 42 42 44 42 40 44 46 45 45 38 27 22 28 29 27 28 29 30 31 35
45 40 35 38 33 32 36 38 40 43 40 37 41 39 30 34 24 31 33 33 31 30 29 29 29 31 35
36 41 41 39 36 33 32 33 39 41 39 35 39 36 28 35 33 37 35 32 30 30 28 30 30 30 32
39 39 40 40 37 34 32 31 31 35 36 30 33 35 38 38 37 36 35 27 20 18 18 20 27 30 30
39 40 39 37 37 36 34 33 34 33 29 28 30 29 29 29 29 33 32 30 14 20 15 18 24 29 31
38 38 38 38 38 35 37 36 36 34 31 30 24 19 15 13 22 30 26 19 20 11 7 10 14 20 25
37 38 38 38 37 36 33 32 32 35 34 30 24 13 9 16 24 25 19 16 12 10 18 19 13 11 18
37 36 36 36 35 35 31 30 33 32 29 27 26 20 16 17 29 22 18 22 22 24 30 33 30 17 12
36 35 35 35 35 34 31 30 33 29 26 22 22 20 23 20 28 22 24 28 32 38 42 45 45 39 34

GFSFLT2_850_spd_036.txt.gz
Wind_Speed
48 44 47 49 40 35 36 40 39 38 40 45 45 46 45 44 45 46 47 48 47 46 46 46 45 43 43
52 51 49 48 45 46 37 31 38 44 41 40 41 41 42 42 43 42 42 43 44 43 45 45 44 44 43
50 51 49 43 47 41 42 45 40 41 39 39 38 39 40 40 40 41 41 41 42 42 42 43 42 42 43
45 43 46 45 37 44 48 41 45 47 42 37 39 43 41 41 42 43 43 42 44 44 44 44 45 43 42
46 45 34 49 42 44 46 48 46 36 38 50 41 42 47 44 42 41 41 40 40 40 40 40 41 40 39
35 46 45 43 45 47 46 38 52 43 33 48 45 45 46 44 40 37 38 39 39 38 39 40 40 39 38
41 41 43 47 44 44 49 44 46 48 42 47 44 45 44 41 37 37 38 38 39 39 39 39 40 40 41
35 40 42 44 45 42 44 46 46 46 37 40 45 47 45 43 40 37 37 36 37 37 38 39 40 39 40
33 38 39 33 33 36 40 40 43 44 43 38 44 45 46 47 39 29 27 30 32 33 34 35 35 36 38
43 34 33 34 32 32 36 39 41 46 40 37 44 40 34 36 27 40 37 35 31 31 33 34 33 29 31
36 38 38 37 36 34 33 34 40 43 40 37 42 43 33 39 37 41 36 30 31 29 27 31 32 33 34
38 39 39 39 37 35 32 33 33 36 34 30 37 39 40 40 38 37 36 36 31 24 20 21 24 31 34
38 37 37 37 37 37 35 34 33 33 31 31 30 32 31 32 34 40 41 37 18 21 24 19 22 26 28
35 36 36 37 38 35 37 37 37 38 34 31 30 27 26 21 25 36 33 26 29 20 13 12 15 19 23
34 36 37 38 37 35 35 35 34 38 40 36 27 21 16 18 28 35 25 26 21 13 16 12 8 12 17
33 35 36 36 36 35 33 34 34 37 35 32 29 29 27 25 27 36 26 29 29 25 28 28 22 7 8
34 35 33 33 35 35 34 33 33 34 31 28 25 27 28 21 30 37 28 29 32 37 39 42 40 28 13

GFSFLT2_850_spd_039.txt.gz
Wind_Speed
49 50 50 47 46 41 39 38 41 37 37 44 49 42 40 41 41 42 43 43 44 45 44 46 46 44 46
49 55 51 51 49 43 37 32 39 54 44 40 40 41 41 41 40 41 42 43 43 43 44 45 45 45 46
48 49 50 45 42 41 45 38 42 40 40 39 40 39 38 40 42 43 44 44 44 43 44 44 44 44 44
42 45 42 39 44 42 46 43 46 43 39 43 39 40 41 41 40 39 40 41 42 44 44 44 43 43 43
40 39 47 45 43 46 46 46 44 41 43 45 41 44 47 41 39 38 37 37 38 39 40 42 43 43 44
43 44 43 45 49 46 41 48 47 39 34 49 44 47 46 44 40 36 37 38 39 40 40 40 40 41 41
42 41 45 46 43 52 46 43 46 49 44 48 46 50 46 45 40 37 37 38 39 39 39 39 40 40 41
35 39 39 44 40 41 44 46 46 46 36 44 47 49 47 46 43 38 36 36 35 34 35 37 39 39 40
32 38 37 32 32 35 40 41 43 45 45 38 42 44 48 46 36 32 30 32 33 34 35 36 36 36 38
42 35 31 33 31 30 35 38 40 45 43 38 43 42 32 34 33 41 38 33 30 31 32 34 36 36 38
35 36 36 35 34 34 32 33 39 41 40 36 39 43 32 42 43 44 36 39 37 34 31 31 34 36 39
37 37 37 37 37 36 33 33 32 35 35 30 36 39 42 44 43 44 42 39 35 27 22 20 23 29 36
36 35 36 36 36 37 35 35 35 33 33 32 31 35 35 37 41 42 44 42 20 31 30 23 21 22 27
35 34 35 36 35 36 39 40 40 41 36 34 31 30 31 26 30 38 39 31 38 32 20 14 12 18 24
34 35 35 35 36 36 36 38 38 41 43 39 31 28 26 20 28 39 36 32 32 25 14 5 4 12 19
33 34 35 36 37 36 34 36 37 39 40 36 36 37 35 27 26 39 33 31 32 29 26 20 8 3 8
34 34 35 35 35 34 34 35 35 37 36 32 33 33 31 27 29 34 40 27 28 31 30 30 28 11 7

GFSFLT2_850_spd_042.txt.gz
Wind_Speed
48 53 50 47 46 44 40 38 42 46 42 42 41 42 41 42 43 44 44 43 42 41 41 42 44 45 44
47 50 48 50 49 41 44 45 43 41 38 39 41 41 42 41 42 43 42 42 41 41 42 42 42 43 45
46 44 49 42 42 46 47 43 42 40 40 39 37 38 38 39 40 41 42 43 44 44 44 43 43 43 42
42 40 35 49 45 44 45 46 43 45 46 38 39 39 40 40 40 39 39 39 39 40 40 40 42 42 43
33 46 44 43 45 46 44 47 43 45 41 36 44 48 47 43 40 38 37 36 36 37 38 39 38 40 43
42 41 43 45 47 43 42 47 49 39 36 48 45 49 46 42 40 36 37 38 39 40 40 40 40 40 40
37 38 44 43 43 50 45 42 44 49 47 49 48 49 45 44 41 38 38 38 39 40 40 40 40 40 40
33 36 36 42 38 39 41 44 43 45 38 43 47 48 48 47 41 29 30 33 34 35 37 38 38 39 39
31 35 37 31 28 32 37 40 42 45 43 35 39 50 48 44 35 31 34 33 34 34 35 37 38 37 38
40 34 29 28 29 29 34 37 39 42 43 39 42 39 36 36 39 47 44 37 35 33 34 35 35 36 41
32 34 34 33 33 32 31 32 37 38 38 34 39 41 32 43 51 46 41 41 38 33 27 25 31 38 41
34 36 36 36 34 34 32 31 31 35 34 30 36 37 41 46 45 45 46 41 36 27 32 31 27 25 34
35 35 35 35 35 36 33 32 34 33 32 31 31 35 37 40 40 42 45 46 22 38 36 31 26 20 25
34 33 34 34 36 36 37 37 40 38 35 34 33 35 34 31 30 38 43 34 39 34 23 19 10 10 17
33 34 34 35 36 35 35 36 37 38 42 38 33 31 31 24 27 37 39 37 30 29 18 16 11 4 11
33 34 35 36 36 35 33 34 35 35 39 38 37 39 39 30 23 36 37 39 29 25 24 19 16 5 4
36 34 35 34 34 33 35 34 33 34 36 33 34 32 33 30 27 32 42 43 32 26 28 23 22 9 6

GFSFLT2_850_spd_045.txt.gz
Wind_Speed
44 43 37 34 32 31 30 38 40 36 36 37 37 38 38 39 40 41 41 42 42 43 43 43 43 42 43
44 45 42 36 33 32 43 34 35 36 35 35 38 38 37 37 39 40 40 41 41 41 41 42 42 42 42
43 46 41 34 44 40 40 34 37 38 36 36 36 35 35 36 38 40 41 42 41 41 42 43 43 44 44
39 32 42 43 39 38 42 38 40 40 41 37 37 36 37 38 39 39 38 38 39 40 40 40 41 42 42
37 41 41 37 37 39 40 42 43 40 42 31 42 45 45 40 38 38 35 35 36 37 38 39 39 40 41
39 37 38 35 40 38 39 44 47 33 37 48 43 47 43 41 41 38 38 38 38 39 39 40 41 41 41
34 32 39 38 39 46 43 40 42 44 46 48 46 45 43 45 42 34 28 33 35 36 37 38 40 41 42
29 35 34 38 38 35 37 39 41 42 33 42 45 44 48 47 36 28 36 32 33 34 35 36 36 37 40
29 30 34 29 26 27 33 34 42 42 40 28 33 47 48 45 36 41 39 34 34 32 33 35 38 38 40
34 30 27 25 25 24 27 33 37 35 34 32 41 35 29 32 45 46 43 40 37 35 31 32 34 37 41
30 30 29 28 28 27 29 29 33 34 36 31 39 39 30 40 52 49 43 46 41 33 27 29 29 28 35
29 31 32 33 31 30 30 28 27 32 30 26 33 35 39 46 47 46 44 43 39 30 36 31 28 29 30
32 33 33 32 32 33 30 29 30 29 26 25 28 32 36 40 44 41 44 47 29 40 34 31 25 22 21
33 33 33 33 33 33 33 34 36 34 28 28 28 30 34 32 29 34 39 34 46 38 31 24 19 16 12
32 34 33 34 33 32 31 32 34 37 37 33 30 30 28 26 25 30 37 41 41 33 27 23 18 11 7
32 33 33 34 33 31 29 31 33 34 36 36 35 36 35 31 17 27 36 41 43 32 24 23 21 12 5
33 31 32 32 31 30 30 32 31 31 34 31 31 30 30 29 22 24 33 39 42 38 23 24 18 12 5

GFSFLT2_850_spd_048.txt.gz
Wind_Speed
34 32 30 31 30 29 31 34 38 35 35 34 35 36 36 37 38 38 39 39 40 40 41 42 42 44 45
41 38 36 32 31 33 36 33 33 33 33 35 36 36 36 36 37 38 38 38 39 40 41 43 43 43 43
43 42 39 33 36 41 30 31 30 33 33 33 35 36 35 35 37 38 39 40 40 40 41 42 42 43 44
37 44 32 41 38 34 35 35 37 34 38 32 34 33 35 38 38 38 37 37 38 39 40 41 41 42 43
36 36 44 36 36 36 37 41 40 35 39 34 34 43 42 38 36 35 34 34 36 37 38 39 40 40 41
41 35 36 34 37 38 41 41 43 32 32 49 37 43 43 42 37 36 36 36 35 36 37 38 39 40 42
33 32 35 36 40 42 44 43 41 44 36 49 38 44 43 44 40 37 32 32 34 34 36 37 38 39 40
28 32 36 35 37 38 38 40 40 36 29 40 42 42 43 46 37 28 34 32 31 33 35 37 39 40 41
30 30 32 32 28 29 31 32 41 38 40 27 30 44 48 45 36 30 34 35 31 33 35 36 38 38 39
29 27 24 24 23 22 27 30 35 40 28 29 41 29 29 34 38 48 41 36 36 33 34 33 31 32 33
25 23 23 23 23 24 26 28 32 35 37 30 38 39 28 39 49 46 40 41 42 36 30 32 32 32 36
24 26 27 31 30 29 29 28 28 34 32 27 33 34 37 43 45 45 43 41 40 35 36 42 37 31 30
26 28 31 32 32 32 30 28 28 30 29 27 27 30 33 39 44 47 40 45 33 41 42 39 34 28 26
28 31 32 31 32 30 30 30 32 33 28 27 26 27 33 33 34 39 35 36 44 45 40 34 29 21 22
31 31 31 31 31 30 30 30 31 34 35 31 26 28 26 28 33 30 33 35 40 43 42 34 24 23 18
30 30 31 33 33 32 30 31 32 33 33 33 31 33 33 31 18 28 31 34 38 40 40 31 24 24 17
30 30 32 31 30 32 31 31 33 32 31 30 27 29 30 31 36 28 32 34 34 35 38 27 21 19 20

GFSFLT2_850_spd_051.txt.gz
Wind_Speed
31 30 35 33 33 34 34 36 34 39 36 33 34 35 36 36 36 38 38 39 39 38 38 38 38 39 39
35 36 32 34 33 36 30 38 38 32 32 35 36 35 36 36 36 37 37 37 38 39 38 39 39 39 40
40 36 36 36 29 35 32 32 33 36 33 35 35 36 36 35 35 36 37 39 39 39 39 39 39 40 41
39 42 36 33 36 31 33 36 39 39 38 37 33 34 34 37 37 36 35 34 35 35 36 37 38 39 39
39 36 41 36 33 35 36 38 45 33 41 37 35 44 42 37 36 34 33 34 35 36 37 38 38 39 39
39 40 36 35 36 36 45 40 41 40 27 49 41 47 44 40 35 35 35 34 34 36 37 39 39 40 39
34 34 36 39 41 41 43 44 43 44 39 46 44 49 41 42 39 38 33 28 31 32 33 34 35 36 37
31 32 36 37 36 37 41 42 44 42 35 38 45 43 42 47 41 30 30 30 29 31 34 34 35 36 38
29 31 31 31 29 30 36 38 43 41 42 38 34 45 51 47 40 36 37 36 30 29 32 34 35 36 38
34 31 27 27 25 25 31 36 41 43 40 31 41 38 34 41 45 43 43 37 35 33 33 31 29 32 36
29 30 31 29 28 29 30 31 37 41 38 32 38 39 30 43 48 45 43 42 39 35 34 32 34 32 37
30 31 31 32 33 32 30 31 31 35 35 31 34 35 38 44 48 47 42 39 39 34 37 41 37 33 29
31 31 33 33 31 32 31 32 32 32 32 30 30 31 33 40 45 47 44 41 35 35 41 41 37 31 29
29 32 33 31 32 32 32 34 36 37 33 30 27 27 32 36 38 43 38 38 43 41 42 41 37 27 24
31 33 32 33 33 33 32 34 33 36 38 33 31 32 31 32 35 33 36 39 37 39 40 40 38 30 25
32 32 33 34 34 33 31 33 33 35 34 35 37 37 35 32 20 30 35 38 39 39 37 35 39 33 24
32 32 32 32 32 34 34 34 35 34 34 34 32 31 33 35 41 31 34 36 40 39 35 32 35 35 24

GFSFLT2_850_spd_054.txt.gz
Wind_Speed
37 32 33 39 36 36 37 36 37 38 34 30 31 35 34 35 36 36 37 36 35 35 34 34 34 34 35
35 38 36 37 36 35 38 41 30 33 29 36 34 34 34 33 34 35 35 35 35 36 36 36 36 36 35
40 39 38 37 35 40 38 35 35 39 35 36 34 33 34 31 32 34 36 35 34 35 35 35 34 35 35
40 40 34 36 39 38 38 39 45 43 39 36 34 36 34 35 34 31 31 31 30 31 33 34 34 35 35
37 37 35 36 33 35 41 45 46 42 34 41 42 41 38 39 34 32 30 31 32 33 33 34 34 34 35
39 38 38 35 35 39 43 45 41 39 38 50 42 43 43 40 37 34 33 31 34 35 33 33 33 34 34
36 37 39 37 40 41 40 38 46 47 45 44 44 49 44 42 40 38 30 24 27 28 29 29 31 33 35
33 33 35 37 35 36 36 39 44 44 38 40 49 48 47 45 41 29 29 27 27 29 30 29 30 31 33
28 29 29 30 27 30 34 37 42 43 43 38 42 48 48 45 38 35 36 31 29 27 27 28 28 32 33
34 32 27 29 27 26 28 33 39 44 38 36 42 41 33 39 42 40 37 33 31 29 27 24 24 29 33
31 30 29 28 30 31 29 30 36 39 37 31 40 39 33 43 46 44 40 38 36 30 28 25 29 29 36
29 31 32 33 33 32 30 31 30 34 35 31 35 35 37 43 47 46 41 38 36 34 33 34 35 33 31
30 31 31 32 33 33 30 31 32 31 32 29 30 30 32 38 44 46 44 39 33 36 36 38 39 37 35
29 31 33 33 33 33 35 35 38 37 33 31 30 29 33 36 38 42 37 37 41 39 39 41 39 36 32
30 33 34 34 34 33 34 37 36 38 39 34 32 33 33 33 35 34 33 40 39 41 38 40 40 38 32
32 33 34 34 36 34 36 35 36 37 36 36 38 38 38 34 24 25 36 39 40 39 39 35 41 38 31
31 32 34 35 35 37 36 35 36 35 36 35 32 33 34 36 41 27 34 37 39 42 36 35 37 36 27

GFSFLT2_850_spd_057.txt.gz
Wind_Speed
37 36 35 34 34 30 30 31 34 32 30 29 28 31 32 32 33 33 33 33 33 33 33 33 33 33 33
35 35 36 38 33 33 33 34 35 32 29 31 30 31 31 30 31 32 32 32 34 35 35 34 33 33 33
37 36 39 38 38 37 39 37 36 38 34 36 30 29 28 31 30 30 33 32 31 31 31 31 32 31 31
33 37 37 34 35 41 40 40 42 40 40 32 29 35 34 31 31 31 28 28 29 29 30 31 32 32 32
34 37 34 35 39 37 41 45 42 42 37 36 43 39 38 35 34 30 29 29 31 31 30 31 32 32 32
35 34 39 37 37 36 41 41 42 38 34 48 43 42 40 37 35 33 31 30 29 32 30 29 28 28 28
37 37 37 36 36 37 36 36 41 46 46 48 42 43 38 39 35 32 25 23 26 26 25 27 29 30 30
33 34 31 30 32 34 35 37 41 39 37 39 42 40 42 40 34 25 25 25 23 26 27 26 27 28 29
27 27 26 29 25 27 30 33 40 38 37 35 38 46 45 41 33 33 34 29 27 23 23 24 25 26 29
32 32 28 26 23 24 28 31 35 37 35 34 39 39 31 33 38 38 36 31 27 27 23 21 21 22 25
32 29 27 26 27 28 28 30 34 37 35 29 36 35 30 40 44 42 39 35 32 27 22 20 22 22 26
29 30 29 28 29 30 28 28 29 33 33 28 31 32 33 39 44 44 40 35 32 29 26 27 27 26 26
28 28 28 31 31 31 30 27 29 30 28 29 29 28 27 34 40 42 41 37 26 28 33 33 34 32 33
28 30 30 30 32 31 34 33 37 35 29 29 26 26 30 33 35 40 36 36 36 36 36 38 36 33 32
30 30 31 33 34 32 32 36 35 37 36 29 27 28 30 32 34 35 35 37 38 39 39 40 39 36 35
28 31 34 35 35 34 33 32 34 34 35 33 35 35 35 34 26 31 37 41 40 38 36 38 43 40 37
30 33 34 34 34 34 33 32 33 34 34 36 34 32 36 36 38 27 32 38 35 37 35 37 39 42 36

GFSFLT2_850_spd_060.txt.gz
Wind_Speed
34 33 35 35 35 35 30 29 29 28 27 27 26 26 28 28 30 29 30 31 31 32 32 32 33 34 34
34 35 35 35 37 36 33 31 32 28 29 27 28 29 29 27 28 29 31 31 32 32 33 34 33 32 32
36 34 36 37 40 37 39 38 33 33 31 31 29 27 25 27 30 30 30 30 32 32 32 31 31 31 31
33 35 37 39 39 41 42 37 36 33 35 32 26 29 33 33 31 30 29 29 29 30 30 31 32 32 32
33 37 39 41 43 41 39 37 38 38 37 29 39 41 35 34 32 29 27 27 29 31 33 32 31 32 32
33 37 41 41 39 36 36 38 39 37 35 45 39 41 37 34 32 31 30 31 30 30 31 31 30 28 27
35 37 38 35 32 34 33 35 39 40 42 46 38 39 35 34 32 31 27 23 26 27 27 26 27 29 30
33 34 31 31 32 33 37 37 39 37 35 42 39 39 40 37 34 27 23 26 23 25 28 29 29 28 29
26 26 28 30 30 30 31 31 38 38 34 34 38 43 44 40 30 30 35 31 31 28 25 25 28 28 30
30 31 28 27 26 24 27 31 34 36 30 34 39 35 31 34 27 40 38 34 32 29 25 23 22 24 28
27 28 27 26 25 26 28 29 32 35 34 30 38 37 32 42 43 41 40 37 35 31 24 20 18 20 25
27 28 28 28 28 27 26 27 28 31 32 31 35 34 36 41 44 43 39 37 36 32 25 17 23 25 26
26 28 29 28 29 31 30 29 30 28 28 28 30 30 30 36 41 42 43 41 33 26 29 30 31 30 30
28 28 26 30 32 31 33 33 36 35 25 25 26 26 31 34 35 41 39 38 37 33 33 36 33 31 33
27 27 31 33 32 30 31 33 33 36 34 28 27 29 30 31 35 36 36 36 37 38 38 40 38 35 34
25 29 31 32 34 34 32 31 34 34 35 34 35 36 35 35 29 31 37 40 41 41 39 39 42 35 34
27 29 30 32 34 35 34 33 34 35 35 37 36 35 36 37 39 27 31 39 36 35 33 34 38 39 35

GFSFLT2_850_spd_063.txt.gz
Wind_Speed
32 31 33 35 35 35 35 36 33 30 29 28 26 26 26 28 28 28 29 28 29 30 31 32 31 32 31
34 34 35 34 36 37 37 35 33 29 29 28 27 27 27 27 26 26 28 30 31 31 32 32 32 33 33
35 35 35 35 38 39 40 39 36 30 28 30 28 26 25 25 27 30 32 31 31 31 32 33 33 33 32
33 35 36 37 38 41 43 40 35 30 31 31 24 27 30 31 30 29 30 29 29 30 30 31 32 32 32
32 36 37 38 41 42 40 37 37 34 35 33 36 38 35 34 31 30 28 27 27 29 31 32 34 33 33
30 34 38 40 39 35 35 37 39 35 39 45 38 41 37 35 32 31 30 29 30 30 30 30 31 31 31
33 35 38 33 31 35 34 35 36 43 39 47 42 43 35 35 33 31 29 27 26 27 28 28 28 28 29
30 31 29 29 31 34 37 40 41 38 33 47 43 42 39 39 34 28 22 23 27 25 25 28 30 32 32
24 26 28 29 28 31 33 33 40 41 37 32 41 43 44 40 32 26 29 34 30 30 30 29 29 30 32
26 24 24 26 25 25 28 32 34 40 26 33 41 35 32 36 25 40 39 35 32 31 30 29 29 30 32
25 26 25 25 26 25 25 29 33 37 38 32 41 38 35 43 46 45 42 39 36 34 32 29 26 25 29
26 26 28 27 24 27 29 29 30 34 35 31 36 35 36 41 46 46 43 42 40 37 31 22 20 20 22
24 27 27 27 30 29 29 29 32 31 28 26 28 30 31 36 42 46 45 44 36 31 34 29 27 26 28
25 25 26 29 29 30 32 32 35 35 28 27 28 29 33 35 38 44 42 42 38 33 33 34 31 29 29
23 25 28 30 31 32 33 35 36 37 37 31 28 31 32 33 36 37 36 36 35 36 35 37 34 31 31
22 26 29 32 35 35 34 34 36 37 37 36 37 37 36 37 29 31 37 38 39 39 39 38 40 35 33
22 26 31 34 36 36 35 36 37 37 37 38 38 37 36 38 43 28 29 41 36 35 34 35 39 36 31

GFSFLT2_850_spd_066.txt.gz
Wind_Speed
28 27 30 32 33 34 34 35 36 36 33 30 27 26 26 27 28 28 28 28 28 28 28 29 29 30 30
31 31 32 33 34 35 35 35 36 32 28 27 26 27 26 26 26 26 26 28 28 30 31 31 32 32 31
31 33 35 33 36 36 37 38 35 30 27 28 28 26 24 24 26 28 30 31 31 30 31 31 31 32 32
31 32 33 34 35 39 42 38 34 32 29 28 28 29 30 29 29 29 29 30 30 29 30 30 30 31 31
29 32 34 34 37 38 37 35 37 35 34 34 36 36 32 32 32 30 29 28 28 28 29 30 31 32 33
28 32 35 36 35 31 32 35 36 32 39 44 37 38 36 35 32 31 30 29 30 30 31 31 31 31 31
30 32 32 28 28 32 34 37 39 39 38 45 40 41 33 34 33 31 27 26 28 28 26 27 29 29 29
26 26 25 26 28 31 34 37 38 36 34 42 37 39 42 42 37 26 23 23 27 26 26 27 28 29 32
21 21 22 23 24 29 30 33 39 38 36 24 40 45 48 41 30 32 35 31 32 32 31 30 29 30 32
20 18 19 21 22 24 26 29 34 37 30 33 40 37 36 35 37 39 36 34 31 30 31 30 29 30 34
21 21 20 21 20 19 24 28 31 33 35 31 38 36 33 44 46 44 41 39 38 36 32 29 27 26 30
22 22 23 20 22 23 23 25 28 33 32 29 32 32 34 40 46 47 45 43 41 38 31 25 25 24 24
22 23 21 23 24 25 27 29 31 31 29 26 28 28 29 36 42 46 45 42 33 31 33 31 28 26 26
23 21 22 25 27 30 33 33 35 34 31 28 26 27 31 33 37 42 38 40 35 32 34 34 32 29 28
21 21 24 28 31 33 33 35 36 37 35 29 29 30 31 32 34 34 34 37 37 37 36 36 32 30 29
19 21 25 30 34 32 32 35 37 36 36 35 35 37 37 36 29 35 40 40 39 37 36 37 39 32 30
19 21 27 32 32 33 34 34 37 36 37 37 37 36 38 39 43 27 33 39 35 36 34 34 36 34 31

GFSFLT2_850_spd_069.txt.gz
Wind_Speed
22 22 25 27 29 31 31 32 33 33 32 30 29 26 26 25 26 27 28 29 29 29 29 30 30 30 31
25 25 27 28 30 31 31 30 32 31 26 25 25 26 25 24 25 25 26 27 28 30 31 32 33 33 33
25 28 30 29 32 32 32 32 29 26 25 25 23 24 24 26 25 27 28 30 31 32 32 32 32 33 33
25 27 29 30 31 29 28 28 29 27 26 24 24 26 25 25 26 27 28 30 31 31 31 31 32 32 32
25 26 26 22 23 27 27 26 29 31 29 30 29 29 28 28 27 27 27 28 29 29 29 30 31 31 31
24 24 22 27 27 23 25 26 31 29 35 32 34 35 29 26 28 28 28 28 29 29 30 31 32 31 31
24 26 27 23 24 27 27 28 32 34 36 34 35 33 32 34 32 29 23 21 21 26 25 26 26 27 28
23 22 21 21 21 24 28 30 30 32 29 31 34 35 37 38 35 24 21 23 22 24 25 26 28 29 30
18 17 17 18 20 25 27 27 32 34 31 24 36 39 41 39 33 30 34 31 29 28 27 28 27 28 30
14 13 15 17 18 21 22 27 29 30 26 27 36 35 27 35 29 40 37 35 32 30 29 27 26 27 30
16 16 16 17 15 18 21 25 29 31 33 29 35 34 30 39 41 41 41 39 36 32 28 23 21 22 26
16 16 18 15 16 19 21 24 28 32 30 25 31 29 31 37 43 44 40 38 37 32 25 27 25 22 24
17 18 17 17 19 22 25 25 28 27 25 22 24 24 26 33 39 42 43 40 27 30 33 30 29 27 28
19 20 17 19 22 25 27 28 32 30 25 23 23 25 28 30 33 40 35 35 34 32 33 33 30 29 28
19 18 18 22 25 25 26 29 31 33 32 25 26 26 28 29 33 33 34 35 34 34 33 35 31 27 25
18 17 19 24 28 26 28 28 31 31 33 32 31 33 34 30 26 34 35 37 38 36 35 36 38 31 27
17 16 20 26 28 29 30 29 32 33 34 34 33 32 34 36 33 24 34 33 31 31 28 30 34 32 27

GFSFLT2_850_spd_072.txt.gz
Wind_Speed
22 19 22 25 26 28 29 30 30 31 30 29 27 25 25 25 25 25 26 26 27 27 28 28 29 30 31
16 22 23 24 26 28 28 29 29 28 26 23 22 24 23 24 25 25 26 27 28 28 29 30 31 32 33
20 23 26 24 24 22 23 25 24 24 24 23 22 21 22 25 25 26 28 28 29 29 30 31 31 32 33
18 17 18 15 19 19 20 20 20 22 23 21 21 20 21 23 24 26 27 27 27 29 29 30 31 32 32
13 14 16 15 16 18 19 19 21 22 19 18 22 24 25 25 26 26 27 29 30 29 29 30 31 32 32
15 15 16 17 16 16 19 19 22 21 15 24 22 24 26 26 27 26 26 27 28 29 29 29 29 30 31
17 17 18 16 19 19 18 22 25 23 22 24 25 25 24 26 30 30 24 20 21 24 27 28 28 29 29
19 18 17 15 17 19 21 22 22 23 20 25 25 24 26 30 35 27 22 24 23 23 25 27 28 30 31
17 16 16 17 17 19 19 19 24 28 26 18 25 26 33 36 29 28 34 29 28 27 26 27 29 29 31
12 12 13 14 15 17 18 22 24 26 17 22 33 28 22 35 26 35 32 34 30 30 27 26 25 27 30
13 13 13 14 14 15 18 22 25 29 31 24 32 33 28 33 39 37 35 36 34 33 30 24 18 21 26
13 13 15 15 13 17 20 24 26 28 28 24 29 27 28 35 38 39 38 36 34 29 24 27 27 26 26
13 14 16 15 16 20 23 23 27 26 22 21 23 24 27 32 37 39 38 36 25 27 28 30 30 28 30
15 16 16 15 18 22 25 26 30 28 25 23 23 24 26 28 33 38 33 32 34 31 32 33 31 28 27
17 17 16 17 20 24 25 27 29 31 31 25 26 26 27 26 31 32 33 35 33 34 34 37 33 30 28
17 17 16 18 23 25 25 28 30 30 30 28 29 31 30 28 27 32 34 36 36 34 31 32 35 31 29
18 16 16 20 25 27 28 31 29 28 29 30 29 28 32 33 31 26 32 35 32 33 29 30 33 33 30

GFSFLT2_850_spd_075.txt.gz
Wind_Speed
18 22 24 22 21 23 24 26 29 30 29 29 29 28 27 26 25 25 24 24 23 24 24 25 25 25 25
18 18 17 17 20 24 26 26 26 28 26 27 25 24 25 24 25 25 25 25 25 26 26 26 26 27 28
15 15 18 19 20 21 21 23 23 25 24 24 23 24 21 23 22 24 25 26 26 26 26 26 26 27 28
14 15 17 15 16 20 21 21 27 24 24 22 20 19 22 23 23 25 26 25 25 26 26 26 27 27 28
14 11 13 16 13 18 24 23 24 24 21 17 17 24 23 23 24 25 24 25 25 26 27 27 28 29 29
13 16 12 14 18 20 21 24 24 20 20 25 23 25 25 25 25 25 27 28 26 26 26 25 26 26 27
15 15 17 16 19 21 19 20 23 25 23 28 25 29 27 29 29 31 29 26 23 24 25 25 25 26 27
16 18 18 16 16 17 20 23 25 22 19 27 27 28 31 34 33 27 23 24 24 22 23 24 26 28 30
16 13 12 13 14 17 18 20 22 26 23 18 29 32 36 35 29 26 29 28 27 25 24 26 26 28 30
12 11 11 12 12 15 15 18 19 26 17 23 32 31 25 39 36 34 31 30 28 28 26 26 26 28 32
10 10 10 11 13 14 15 19 22 27 28 22 33 33 31 37 41 38 34 34 33 32 28 22 20 21 26
11 11 12 13 14 14 16 19 23 25 24 24 29 28 29 35 42 41 38 36 32 29 22 26 23 23 23
11 12 14 15 14 15 18 22 25 25 23 21 24 25 26 31 37 41 40 37 25 29 29 28 28 27 29
13 15 16 16 15 16 22 26 29 30 28 24 23 22 27 30 33 37 35 35 34 33 33 33 31 29 29
15 17 17 17 16 18 23 26 29 33 33 28 25 22 26 30 33 35 34 36 36 37 37 38 36 31 28
16 17 19 18 19 21 25 28 30 30 30 30 30 31 31 31 26 33 35 38 37 34 31 34 37 31 29
17 19 19 19 21 23 26 30 32 29 31 31 30 29 33 35 34 27 33 36 34 36 34 34 36 36 33

GFSFLT2_850_spd_078.txt.gz
Wind_Speed
16 16 13 15 18 21 22 22 23 24 24 24 24 25 24 23 22 22 21 20 21 20 21 21 22 22 23
11 13 13 15 15 18 20 20 20 20 20 20 21 19 20 21 21 21 20 20 21 22 22 22 23 23 24
9 10 11 13 15 16 16 17 16 19 23 22 20 20 19 18 19 20 21 22 22 23 23 23 23 23 24
8 9 12 10 13 16 16 18 23 23 22 20 16 16 15 18 19 20 22 22 20 20 21 23 24 25 25
8 9 9 12 11 15 20 24 23 23 16 14 18 16 16 17 19 20 20 19 20 22 24 25 25 26 26
9 11 11 12 16 20 22 22 23 15 23 17 18 18 19 20 22 21 22 22 22 23 25 25 25 26 26
12 12 14 15 17 18 17 17 19 20 23 25 22 24 21 24 24 24 22 21 19 20 21 21 22 23 25
13 14 15 14 14 15 16 19 20 20 18 27 22 26 27 28 25 17 17 18 19 20 23 23 23 24 26
13 11 9 9 10 13 14 18 21 21 18 22 29 33 33 28 22 27 23 23 22 21 21 21 23 25 26
9 7 7 7 9 12 14 17 17 23 15 27 31 32 33 33 37 31 28 24 24 23 23 21 22 24 27
6 6 7 9 11 13 15 16 19 23 24 23 31 31 27 35 39 36 33 31 28 25 20 14 18 19 23
6 8 9 10 11 13 12 14 17 22 22 22 28 27 29 34 39 37 35 34 29 21 23 24 22 21 20
8 10 11 12 13 12 12 15 21 23 22 20 21 23 25 31 37 39 37 36 25 31 29 27 27 24 24
10 11 13 13 13 13 15 18 24 26 24 20 21 21 25 29 31 36 33 33 32 31 33 33 30 26 26
11 14 15 16 14 14 16 20 24 28 29 25 24 24 25 26 32 32 32 35 36 37 35 36 33 30 30
12 14 16 18 18 17 18 20 24 27 29 30 29 30 29 30 26 31 33 37 36 34 33 38 38 32 31
14 15 18 19 20 21 21 21 24 27 29 31 29 28 32 36 34 27 34 36 33 35 36 36 39 36 34

GFSFLT2_850_spd_081.txt.gz
Wind_Speed
18 17 18 15 14 15 15 16 18 19 23 23 22 21 21 20 19 18 19 18 18 18 17 17 17 19 19
15 14 8 10 11 11 13 15 16 18 18 16 18 19 19 19 19 17 18 18 18 18 17 17 19 19 20
9 7 6 8 10 11 11 13 15 15 18 20 20 20 18 17 15 17 19 20 19 20 20 19 19 20 21
6 7 10 12 11 13 13 13 16 19 19 18 14 13 16 15 17 19 19 19 19 17 16 18 20 21 23
9 10 9 10 11 12 15 18 19 17 8 12 10 11 10 14 17 17 17 16 17 18 19 20 22 23 24
9 9 10 11 13 15 16 17 16 8 17 12 13 11 12 14 16 17 18 18 18 19 21 21 22 22 24
9 9 11 11 13 14 12 12 14 14 17 16 14 13 15 18 18 15 10 13 14 15 16 18 20 21 23
10 10 12 11 10 10 10 12 14 13 14 19 18 19 20 20 12 9 16 11 15 17 19 21 20 21 23
11 10 8 7 7 9 10 14 16 15 10 18 25 28 27 20 8 21 16 18 16 17 20 21 22 21 24
8 7 6 6 7 9 12 14 15 14 11 25 27 28 26 22 30 24 23 18 19 19 19 20 20 21 23
4 4 6 7 9 11 13 14 14 15 17 19 28 26 24 34 34 31 27 25 22 18 12 12 18 20 23
5 6 7 8 9 10 11 11 13 16 18 19 23 22 23 30 36 32 29 26 26 16 19 19 19 18 21
6 7 7 9 11 11 11 12 14 14 17 18 18 19 21 26 33 34 32 32 19 26 24 23 22 21 22
7 8 9 10 11 12 13 14 17 16 16 17 18 19 23 26 27 32 29 27 29 27 29 27 26 26 26
8 9 10 11 12 12 14 16 20 22 21 19 18 19 21 23 29 27 26 29 29 31 31 33 32 29 25
9 10 12 13 15 15 15 17 21 22 23 22 22 24 27 28 22 25 29 30 32 32 31 34 35 30 29
11 12 14 16 17 17 16 19 21 22 22 22 23 22 28 32 32 25 30 31 31 32 31 33 37 35 31

GFSFLT2_850_spd_084.txt.gz
Wind_Speed
18 17 16 18 16 16 15 15 16 16 16 17 19 21 20 18 18 18 17 18 18 17 17 17 18 20 19
13 12 12 11 13 12 11 11 14 16 15 16 16 18 20 20 21 19 16 16 16 16 16 18 19 18 19
10 8 8 8 8 10 12 14 16 16 15 18 21 21 21 21 18 18 19 21 21 20 20 20 19 19 20
6 5 8 11 13 11 12 13 15 16 19 18 14 14 15 17 18 18 19 20 20 20 19 18 19 20 21
8 9 9 9 11 12 13 16 17 16 13 8 14 12 13 16 17 18 19 20 20 21 21 21 21 23 24
9 9 10 12 12 14 15 16 13 8 12 6 12 10 13 14 15 17 18 20 20 20 20 21 21 21 22
10 10 11 12 13 14 13 11 11 9 15 11 10 9 13 16 17 16 10 11 16 17 18 19 21 23 24
11 11 11 11 11 10 9 9 10 9 12 17 12 16 17 16 13 7 11 13 15 18 19 21 24 25 24
12 11 11 10 9 9 10 10 13 11 10 12 17 21 21 10 4 8 15 15 15 16 19 22 24 25 27
12 11 10 9 10 11 11 12 13 12 7 18 21 21 19 12 19 18 18 13 15 16 18 20 20 20 22
9 8 9 10 11 12 14 15 15 14 12 16 21 22 20 28 29 26 22 20 18 16 14 12 16 20 23
7 8 9 11 13 13 14 15 15 15 13 14 20 20 21 27 32 28 26 22 22 14 12 18 16 20 22
8 10 11 11 12 13 13 15 16 14 13 14 17 19 19 24 30 31 30 29 15 22 19 21 21 21 21
10 11 11 11 11 13 14 14 17 14 14 16 15 17 22 25 27 30 26 25 25 22 23 25 25 23 24
12 11 11 11 12 13 15 16 18 20 18 14 13 17 21 25 28 27 21 24 22 24 25 27 26 24 23
12 12 13 14 14 13 14 16 19 20 21 19 17 20 23 27 21 22 25 24 28 26 26 29 31 27 27
14 14 15 15 16 16 16 18 21 22 21 20 18 19 25 31 34 22 19 31 27 27 28 29 32 31 28

GFSFLT2_850_spd_087.txt.gz
Wind_Speed
18 18 18 17 16 16 15 15 15 16 17 17 18 19 20 19 20 20 19 17 17 18 19 19 18 18 19
15 15 14 13 13 13 12 13 13 15 17 17 18 19 19 22 23 22 19 15 17 17 17 17 18 18 18
11 10 10 10 11 12 13 14 15 17 17 17 18 21 22 21 20 18 19 18 20 19 19 19 19 19 18
8 9 9 10 12 13 14 15 16 17 18 19 20 17 16 17 17 17 16 17 18 19 20 20 19 19 19
8 8 9 10 12 13 15 16 16 18 16 13 14 15 16 15 16 16 17 18 20 21 21 20 20 20 22
9 10 11 12 13 14 16 17 15 12 12 7 14 12 14 16 17 19 20 21 22 22 21 19 18 20 19
10 11 11 12 13 14 15 14 12 9 14 10 11 11 14 17 21 21 20 17 17 21 23 23 24 24 23
12 11 12 12 12 13 11 9 9 9 14 17 12 14 17 19 19 15 11 12 21 21 23 25 26 26 26
13 12 12 12 11 10 8 9 10 9 13 17 13 20 20 11 5 3 11 18 19 19 22 24 26 27 27
13 13 11 11 9 9 10 12 14 13 9 14 17 19 15 4 7 20 18 11 19 18 20 21 23 24 25
11 10 9 9 10 11 13 15 16 17 14 17 20 19 19 26 25 22 19 21 20 18 18 18 15 19 26
8 8 9 10 12 14 15 16 16 16 14 15 20 19 21 27 31 28 27 26 22 16 10 17 17 19 22
9 10 12 12 13 14 15 16 16 15 15 16 19 19 22 27 32 33 33 31 21 15 20 20 21 20 24
11 13 13 13 14 15 15 15 17 12 11 14 17 20 24 27 30 33 29 30 25 23 23 25 23 23 23
14 14 14 14 14 14 15 16 17 17 17 12 14 20 23 27 31 30 27 24 23 24 27 28 25 24 24
16 15 15 15 16 15 15 17 19 19 20 20 20 22 23 25 24 23 26 22 22 27 28 29 29 24 24
18 17 17 17 18 18 17 18 20 21 21 21 20 21 24 28 30 24 22 26 28 29 28 26 29 29 28

GFSFLT2_850_spd_090.txt.gz
Wind_Speed
15 17 17 15 15 15 17 16 16 17 17 17 17 17 18 18 19 18 18 18 17 14 16 16 14 16 17
17 15 13 13 13 13 13 12 13 16 14 14 17 17 17 17 19 21 21 19 17 16 15 15 16 16 16
14 11 11 11 11 11 12 13 14 14 14 15 16 17 19 20 19 17 16 15 14 14 14 15 16 17 16
9 9 11 11 10 12 13 13 13 15 15 16 19 18 16 14 14 12 12 12 13 14 16 17 17 17 17
9 10 10 11 11 12 13 14 14 16 16 15 15 13 13 12 12 13 13 14 15 17 19 19 17 17 18
8 9 11 11 13 14 15 15 14 13 12 7 11 11 11 12 13 16 17 18 19 20 18 18 19 20 19
9 10 11 12 13 14 14 14 12 10 11 7 9 8 10 14 19 20 19 19 16 15 20 23 23 24 23
10 11 11 12 12 12 11 10 8 8 11 11 10 9 10 17 18 15 10 9 13 21 21 24 25 25 24
11 11 11 11 11 9 7 6 6 8 12 13 12 15 15 11 6 1 9 15 20 20 22 25 25 25 25
11 11 10 11 9 7 7 7 9 9 8 13 15 16 11 5 5 16 15 12 16 20 21 21 22 24 25
10 9 9 8 7 8 9 10 12 12 12 16 19 17 17 22 23 22 16 21 21 19 19 18 14 18 24
8 8 7 8 9 10 12 13 13 14 14 15 20 19 21 26 29 27 28 25 24 18 9 15 20 19 21
7 8 9 11 11 12 12 14 14 13 14 14 17 18 21 26 32 31 32 26 21 22 21 21 21 22 24
9 11 12 12 12 13 13 14 15 11 11 14 16 19 23 26 28 32 28 30 26 23 25 24 24 23 23
12 13 14 14 14 14 16 16 16 15 13 11 15 20 23 26 30 29 28 26 24 24 22 28 26 23 21
15 16 16 16 17 16 17 17 18 18 18 18 20 21 23 25 25 25 23 25 19 22 24 28 29 23 22
17 17 18 19 19 19 20 20 20 21 21 21 20 20 24 28 30 25 25 26 28 25 23 24 29 26 24

GFSFLT2_850_spd_093.txt.gz
Wind_Speed
14 14 13 16 16 14 15 15 14 16 17 18 17 16 15 17 17 17 17 17 17 17 15 12 12 12 12
14 14 15 14 14 13 12 12 13 13 14 15 15 15 16 16 16 16 16 14 12 12 11 11 12 12 12
12 13 15 12 10 10 11 11 14 14 14 14 15 15 15 16 16 14 11 10 9 9 10 12 13 14 13
11 10 10 10 11 11 12 12 12 13 13 15 15 15 14 13 11 9 8 8 9 11 12 14 15 15 14
8 9 9 10 11 11 12 12 13 14 14 14 13 11 9 7 7 8 8 10 12 13 15 16 16 14 14
7 9 10 11 12 12 13 12 12 13 11 9 8 7 7 8 8 9 11 13 15 16 16 16 17 20 20
9 10 11 11 12 12 12 12 11 11 7 4 5 6 8 9 11 14 14 14 14 14 15 19 22 21 22
9 10 11 11 11 10 10 10 8 6 4 4 6 6 8 11 12 11 7 4 9 13 19 21 22 23 24
10 10 10 11 9 9 8 6 5 6 8 7 7 9 10 10 8 3 6 9 13 14 18 22 23 23 24
8 8 9 10 8 7 6 5 5 7 6 8 10 11 6 8 7 10 16 16 13 19 20 21 23 23 23
8 8 8 8 7 7 6 7 8 9 11 13 13 13 12 16 17 16 16 12 20 18 19 17 16 16 21
7 7 7 7 7 8 9 10 10 11 11 13 16 16 17 21 23 22 23 23 20 16 8 16 21 20 20
6 7 8 9 10 11 11 11 11 11 12 13 14 16 18 22 26 27 27 24 19 15 24 20 21 20 21
7 8 10 11 11 12 12 13 14 11 12 14 15 18 20 22 26 28 26 27 24 23 23 25 22 20 23
8 9 12 13 13 14 15 15 16 16 14 13 16 19 21 23 27 29 28 24 22 23 23 24 24 23 22
9 10 12 14 15 16 17 17 18 18 18 19 20 22 24 24 25 21 24 24 20 23 25 28 26 21 22
10 11 13 14 16 17 18 19 20 20 19 20 21 21 23 26 27 28 24 24 29 27 24 24 28 25 24

GFSFLT2_850_spd_096.txt.gz
Wind_Speed
18 16 14 15 16 18 17 17 16 17 17 18 17 16 17 17 17 16 17 17 17 17 15 10 10 9 11
14 14 15 17 17 16 15 13 12 13 15 15 15 16 17 17 17 17 17 17 17 15 14 13 11 10 9
15 14 14 14 14 11 11 10 13 17 17 18 17 16 17 17 17 18 16 13 10 9 10 11 12 13 12
14 14 13 11 11 11 13 13 15 15 15 16 16 17 17 16 14 12 10 9 9 10 11 12 14 15 16
12 12 12 11 11 12 12 13 15 15 16 17 15 15 14 11 9 9 9 9 11 12 14 15 16 16 14
11 11 12 12 12 12 13 12 9 14 13 12 13 10 8 8 9 9 10 12 14 16 16 15 13 13 17
10 12 12 12 13 13 12 12 12 14 11 9 7 8 8 9 10 11 13 14 15 13 12 14 17 19 20
11 12 12 11 11 11 10 10 10 9 7 6 8 9 10 11 12 12 11 8 7 11 13 17 19 21 23
11 11 11 10 9 9 7 7 5 6 7 8 9 8 11 13 12 9 8 6 11 15 18 19 23 24 25
8 8 8 7 8 7 7 7 7 6 8 7 8 10 6 9 10 9 13 17 19 19 19 26 25 25 26
7 8 7 8 7 7 7 8 9 10 13 12 11 12 11 14 14 15 18 16 17 21 22 22 22 19 20
7 7 7 7 7 8 9 10 11 12 13 14 15 14 15 17 18 17 18 20 20 20 18 15 19 25 23
6 7 7 8 9 10 11 12 12 12 13 14 15 15 17 19 21 23 25 24 22 15 23 26 25 22 24
7 8 9 9 11 12 12 13 14 13 14 14 16 17 18 21 23 24 25 25 25 25 24 26 27 24 22
8 8 9 11 11 13 14 14 15 15 15 15 16 18 20 21 25 25 25 27 25 25 23 25 27 27 26
9 10 11 11 12 13 14 15 16 16 17 17 19 20 21 22 22 22 22 25 23 20 27 28 28 26 24
10 11 12 12 13 14 14 15 17 17 17 18 19 20 21 22 22 23 23 24 27 27 27 27 28 29 26

GFSFLT2_850_spd_099.txt.gz
Wind_Speed
21 20 20 18 16 16 14 17 18 17 17 17 18 19 18 16 16 16 16 16 18 19 19 19 18 16 13
19 18 18 17 17 17 16 17 16 14 13 13 13 15 17 18 17 15 16 18 19 19 18 16 15 12 9
16 17 18 16 16 15 14 12 12 12 13 17 17 17 17 17 16 17 18 18 16 13 11 10 11 12 12
17 16 16 14 13 13 13 12 14 12 14 15 15 17 17 17 16 16 15 11 10 10 11 12 12 13 14
16 14 14 12 12 13 11 13 14 12 15 17 16 15 15 14 13 11 9 10 11 11 12 14 15 16 16
14 13 12 12 12 13 13 12 10 14 14 12 13 11 10 8 7 9 10 11 12 14 16 16 16 15 15
12 13 13 13 14 13 13 13 12 17 12 9 9 6 6 8 9 10 11 13 15 16 15 14 15 17 17
14 13 14 13 12 13 12 12 11 12 9 5 7 6 8 10 10 12 13 14 11 9 12 15 18 19 20
13 13 13 12 11 11 11 10 7 7 6 6 8 8 9 11 14 12 12 11 11 11 16 20 23 23 26
10 9 9 8 8 9 9 8 8 6 8 9 8 7 6 10 11 10 10 13 17 20 20 20 25 27 27
8 7 8 7 7 8 7 8 9 10 9 8 10 10 11 14 14 14 14 15 17 18 20 22 24 26 25
7 7 7 7 7 7 7 8 9 11 13 13 14 14 15 17 17 16 17 17 19 19 19 15 16 21 25
7 6 7 7 7 8 10 11 12 13 14 15 15 16 17 19 21 20 23 22 21 15 22 24 22 23 25
7 7 7 8 9 10 11 12 13 13 15 15 16 17 18 19 22 23 21 24 24 24 25 26 25 23 25
8 8 8 8 9 10 11 13 14 15 15 16 16 17 18 20 24 23 24 24 24 25 25 27 24 27 26
9 9 9 9 10 11 11 13 14 15 15 16 17 18 20 19 19 19 19 22 22 21 23 26 29 24 26
11 11 11 11 12 12 13 13 14 14 14 15 16 17 19 22 21 19 20 21 25 26 25 25 29 28 27

GFSFLT2_850_spd_102.txt.gz
Wind_Speed
19 18 21 19 19 16 15 15 14 15 17 17 17 16 17 18 17 16 17 18 17 15 16 16 16 16 16
21 20 20 19 17 15 16 15 14 15 14 13 12 11 13 15 16 16 16 15 15 16 16 15 15 12 9
22 20 15 17 18 16 15 14 13 10 12 12 13 14 15 15 15 15 15 16 16 15 13 8 7 8 9
19 17 17 18 17 14 13 13 11 11 12 13 14 14 14 15 15 14 15 14 11 8 7 8 9 10 11
18 18 16 16 16 13 14 13 13 12 14 14 14 13 14 13 13 12 10 7 7 8 8 10 12 13 13
17 16 17 16 15 13 13 14 15 13 12 10 10 11 11 10 7 6 6 7 8 9 11 13 13 14 13
14 16 16 14 14 13 14 14 15 15 13 12 10 8 7 6 6 7 8 9 11 13 14 13 12 12 13
13 14 13 14 14 14 14 14 14 14 11 9 9 7 7 6 6 8 10 11 12 11 9 10 12 15 18
13 14 15 14 14 14 14 13 13 11 9 8 7 6 8 9 10 10 11 11 11 11 11 14 18 20 20
12 13 12 12 12 12 11 10 11 9 9 9 7 6 5 9 10 8 7 9 11 13 17 20 20 23 23
10 10 10 10 10 8 9 10 11 12 6 7 7 8 9 10 10 11 12 12 13 14 16 19 21 23 23
9 9 9 8 8 8 8 9 10 11 10 10 11 11 12 14 13 12 12 13 15 15 17 17 16 20 23
9 9 8 7 7 8 8 9 10 11 13 13 13 14 15 16 17 16 17 15 17 12 18 21 21 21 22
9 8 7 8 8 7 9 10 11 12 13 13 14 16 16 17 20 19 17 17 18 20 22 22 22 21 21
9 8 8 7 8 8 9 10 11 11 12 13 14 15 16 18 20 18 17 17 15 19 20 22 22 22 22
10 9 8 9 10 9 8 9 10 10 11 11 13 14 15 16 15 13 15 15 15 16 18 24 25 22 22
11 11 11 11 12 10 10 11 10 10 10 11 12 13 15 18 16 15 15 14 18 20 21 23 27 26 25

GFSFLT2_850_spd_105.txt.gz
Wind_Speed
31 19 19 19 17 19 16 16 15 15 16 17 18 18 19 17 17 17 18 16 16 17 17 15 15 15 15
25 22 21 20 19 16 15 15 16 16 17 18 16 15 14 14 15 16 16 17 16 15 15 14 14 13 9
30 25 21 21 18 16 17 17 16 16 15 13 13 13 14 16 15 15 15 15 15 15 13 11 6 5 6
25 20 20 18 18 17 16 14 15 15 14 14 14 14 16 16 15 15 14 14 12 10 6 5 6 6 7
21 21 20 19 18 16 15 15 15 17 15 15 14 15 16 14 13 12 11 10 7 6 7 7 8 8 10
21 22 22 18 18 17 16 17 17 17 16 14 12 12 12 11 9 8 7 6 7 8 8 9 10 11 12
22 22 21 18 16 16 16 16 18 16 13 13 12 11 9 8 8 8 8 9 9 10 11 12 12 11 10
20 18 17 16 15 15 15 16 17 16 14 12 11 10 8 8 8 8 9 9 10 11 12 12 10 10 13
17 17 17 16 16 15 15 16 16 14 11 10 9 9 9 10 10 10 10 10 10 10 12 12 12 16 18
17 18 18 17 16 15 14 13 14 12 12 10 9 9 6 11 10 9 8 8 10 12 13 15 19 20 20
17 16 15 13 12 11 11 11 12 12 6 10 9 9 9 6 7 9 10 12 12 12 14 16 19 21 22
16 14 13 12 10 9 9 10 10 10 10 11 11 11 12 11 11 12 11 12 13 14 16 18 19 18 20
14 12 11 11 10 9 10 10 10 11 11 12 12 13 13 13 14 13 13 11 15 15 14 17 20 20 18
13 12 11 10 8 9 8 9 11 12 12 12 12 13 13 14 15 13 13 11 11 16 19 17 18 17 18
12 10 9 9 9 8 8 9 9 9 10 11 11 12 13 14 15 12 13 12 12 15 17 18 17 17 19
12 10 10 10 10 9 9 8 7 7 8 9 10 11 13 12 12 9 10 11 12 14 16 21 20 17 19
13 11 11 11 12 10 9 10 8 8 8 9 10 10 13 16 13 11 10 10 13 15 16 19 24 20 21

GFSFLT2_850_spd_108.txt.gz
Wind_Speed
26 26 27 22 23 19 16 18 16 16 15 14 16 16 16 18 19 18 17 15 15 15 16 15 14 14 14
28 24 24 23 20 18 19 17 13 15 16 17 18 18 17 17 16 15 15 14 16 16 14 13 13 13 12
29 23 25 25 24 19 20 17 15 18 17 16 15 14 14 14 14 15 15 15 16 15 14 13 11 7 5
27 27 22 22 22 20 19 17 16 17 17 15 14 14 15 15 16 15 14 15 16 15 13 9 7 6 6
24 24 26 23 20 19 19 18 17 17 16 16 15 16 16 16 16 15 15 15 14 11 9 8 7 7 7
25 23 20 18 18 21 19 21 19 17 18 17 17 17 16 15 14 14 13 11 10 10 9 9 8 8 9
19 19 18 18 20 20 20 19 17 16 13 14 15 15 15 14 14 12 11 10 10 10 10 10 10 11 10
17 18 19 19 17 16 15 16 17 18 18 17 17 15 13 12 11 12 11 10 10 11 11 12 12 11 11
18 17 16 15 15 16 17 18 18 18 18 16 15 14 13 13 13 12 11 11 11 12 12 11 12 14 15
13 14 14 14 16 17 18 17 18 16 18 17 13 13 10 14 14 13 13 13 13 13 12 13 15 18 20
12 13 13 14 15 16 17 17 17 16 10 15 12 15 11 5 11 12 12 12 13 14 15 16 17 19 20
13 13 13 12 13 13 14 14 14 15 15 12 12 13 14 12 12 13 14 14 14 15 17 19 19 19 19
13 12 12 13 12 13 13 13 12 13 14 16 15 15 15 15 14 14 13 14 16 16 19 20 17 17 20
11 12 12 12 11 13 13 12 12 13 13 13 15 15 15 16 15 14 15 12 11 12 17 19 19 17 17
12 11 11 12 12 13 13 12 12 12 13 14 14 14 14 15 14 12 13 14 13 16 19 18 15 15 17
12 12 12 12 13 13 12 11 10 11 11 12 12 12 12 10 11 9 11 10 12 15 16 19 18 14 17
14 14 13 14 16 15 13 13 12 12 11 12 12 12 12 12 11 11 11 12 13 14 16 19 23 17 17

GFSFLT2_850_spd_111.txt.gz
Wind_Speed
28 23 25 24 23 25 23 19 16 15 15 18 17 16 15 15 15 15 15 15 16 15 13 12 13 13 12
29 24 26 27 21 21 23 19 18 14 13 15 17 18 18 18 18 17 15 15 15 14 14 13 12 13 11
25 26 21 23 20 23 24 20 19 16 16 17 17 18 15 15 14 13 12 14 15 15 14 13 13 12 10
21 27 21 23 24 26 22 20 19 18 18 16 15 15 12 12 14 14 15 15 15 14 13 13 11 9 8
23 25 26 24 23 24 21 19 21 19 18 17 15 15 14 14 15 16 17 16 15 14 13 11 10 9 8
22 23 21 23 22 19 18 19 21 20 18 18 17 16 15 14 16 17 16 14 14 14 13 11 10 9 9
21 23 22 18 15 16 18 20 20 17 13 17 18 17 15 14 16 16 14 13 13 12 12 11 11 11 11
17 17 18 16 16 16 17 18 19 19 18 16 16 15 15 15 15 14 13 13 13 12 12 13 14 13 13
17 17 17 17 17 17 20 20 20 19 18 18 17 15 14 15 15 14 14 14 13 12 13 14 14 14 14
15 15 14 13 14 15 16 16 18 15 18 19 17 12 10 16 16 16 15 15 14 13 13 14 14 14 15
11 10 10 12 14 15 16 17 18 18 13 10 14 14 14 5 17 16 16 15 15 14 14 14 16 18 18
12 12 12 13 14 14 15 15 16 16 15 15 11 12 16 13 8 12 14 14 15 16 17 18 18 18 19
13 13 14 14 14 13 13 13 13 13 13 14 13 13 14 16 15 14 14 16 17 17 19 21 19 20 18
13 14 14 13 12 12 12 12 12 12 12 12 14 16 17 17 18 17 16 14 12 17 20 20 18 18 19
13 13 13 13 13 12 13 12 12 11 12 12 14 15 16 16 15 14 16 17 18 20 20 20 17 18 18
14 14 13 13 14 14 13 12 12 11 11 12 12 13 13 13 12 12 15 15 16 17 18 20 17 15 19
15 15 16 15 16 15 14 14 12 12 11 13 13 13 13 12 10 9 11 13 15 15 16 19 22 16 18

GFSFLT2_850_spd_114.txt.gz
Wind_Speed
25 24 23 20 20 19 22 18 21 17 18 14 18 19 17 15 14 16 19 16 15 14 12 11 11 11 11
24 26 24 21 19 21 25 17 21 19 17 15 15 15 15 16 17 18 18 16 16 15 12 12 12 12 10
22 20 20 18 21 20 21 21 20 20 20 16 14 16 15 18 18 17 17 16 14 13 13 14 13 12 10
19 21 19 19 24 21 24 22 23 21 18 17 17 17 16 15 14 14 15 15 15 14 14 14 13 12 9
20 21 22 23 23 21 22 25 22 18 18 18 17 16 16 15 14 16 16 17 16 15 15 14 12 11 11
20 21 22 21 21 17 20 22 23 20 19 20 18 17 16 15 17 17 17 17 15 15 15 13 12 12 12
18 17 18 20 22 20 24 22 19 17 16 16 18 18 17 17 18 17 17 15 14 15 14 14 14 13 12
15 14 16 16 15 14 13 15 18 18 18 17 16 17 17 17 17 17 17 15 14 14 14 14 14 14 13
15 15 15 15 16 16 16 17 19 19 18 17 17 16 16 18 17 16 15 14 14 14 14 14 15 14 15
14 14 13 14 14 14 15 14 16 14 16 18 18 15 12 18 17 17 15 15 15 15 15 15 16 14 13
11 10 10 10 10 11 12 13 15 16 14 12 14 16 17 8 14 18 17 17 16 16 16 15 15 15 15
8 10 11 11 12 12 13 15 17 18 18 18 17 13 16 16 8 17 18 17 17 17 16 16 16 17 16
10 11 13 14 13 13 13 13 14 14 15 16 16 14 13 17 16 12 12 14 16 16 18 18 18 18 18
12 13 12 12 12 12 11 11 12 12 13 13 15 15 15 15 16 15 14 12 13 17 18 19 19 19 18
13 12 11 11 12 12 11 11 12 11 12 13 14 15 17 18 18 17 17 18 18 19 18 18 17 17 18
13 13 12 11 12 12 12 12 11 12 12 13 14 15 15 15 15 15 17 16 16 17 16 17 15 15 17
15 14 14 14 15 14 13 13 13 13 11 13 13 13 13 13 11 13 13 14 15 14 14 15 15 12 16

GFSFLT2_850_spd_117.txt.gz
Wind_Speed
23 23 23 22 22 20 20 19 20 22 20 19 18 18 18 16 15 15 15 13 15 12 11 12 12 11 9
22 23 22 20 23 22 22 18 21 22 19 20 19 17 15 15 16 16 17 17 17 15 13 14 14 11 10
20 20 19 19 19 22 21 22 21 23 20 21 20 16 14 17 17 17 18 18 19 17 15 14 14 12 11
18 18 18 19 20 20 22 24 25 24 22 23 20 16 16 17 18 17 16 15 17 16 15 14 14 13 12
17 17 19 20 20 21 23 23 25 25 25 23 18 14 17 17 17 16 15 16 17 16 16 16 14 14 13
14 16 17 18 20 21 24 27 27 25 23 22 18 18 16 17 18 17 17 17 18 18 18 18 16 14 15
13 14 15 16 16 19 21 22 24 22 18 22 18 18 18 19 19 18 18 18 17 17 18 18 17 16 16
13 13 14 13 15 15 15 17 19 20 18 16 16 18 18 20 21 20 19 17 16 16 17 17 17 17 16
13 13 13 14 14 14 13 14 16 17 18 18 17 18 18 20 19 19 19 17 15 16 16 16 17 17 16
13 12 12 12 12 13 14 15 16 16 17 18 18 15 14 20 21 20 19 16 16 17 17 17 17 18 16
11 11 10 10 10 10 11 12 13 15 12 11 15 16 19 14 11 20 20 17 17 17 18 17 17 16 16
8 9 11 11 11 11 11 12 14 15 16 17 17 15 15 18 15 14 20 19 19 18 18 17 17 16 16
9 10 11 12 13 13 13 13 14 15 16 17 18 17 16 16 16 14 16 20 20 19 19 18 17 17 17
10 12 12 12 12 11 10 11 12 12 12 13 15 16 17 16 16 15 14 12 15 18 18 18 18 19 18
12 13 12 12 11 11 10 10 11 10 11 12 13 15 16 17 17 16 17 18 18 16 16 17 17 17 17
13 13 13 12 12 12 11 10 10 10 11 11 12 13 16 15 16 18 20 20 19 20 19 18 15 16 15
15 15 14 14 13 12 12 11 11 12 11 11 12 13 13 13 12 13 17 17 18 18 16 16 12 13 13